Location: Lugrin
(46.4033°N, 6.6674°E)
Time: 17:26:30
(UTC+00:00)

CENTAUR R/B - Pass Details

Date: 18 September 2020
Orbit: 753 x 1435 km, 63.5° (Epoch: 26 October)

Event Time Altitude Azimuth Distance (km) Brightness Sun altitude
Rises 19:23:43 0° 320° (NW) 4,077 6.9 -18.5°
Reaches altitude 10° 19:26:23 10° 324° (NW) 3,200 6.1 -18.9°
Maximum altitude 19:34:14 61° 45° (NE) 1,510 3.3 -20.2°
Enters shadow 19:38:32 32° 112° (ESE) 2,215 3.7 -20.8°
